TimeEDT,TemperatureF,Dew PointF,Humidity,Sea Level PressureIn,VisibilityMPH,Wind Direction,Wind SpeedMPH,Gust SpeedMPH,PrecipitationIn,Events,Conditions,WindDirDegrees,DateUTC
12:51 AM,52.0,37.0,57,30.15,10.0,Variable,3.5,-,N/A,,Clear,0,2012-10-12 04:51:00
1:51 AM,51.1,37.0,59,30.14,10.0,Variable,5.8,-,N/A,,Clear,0,2012-10-12 05:51:00
2:51 AM,48.9,37.9,66,30.12,10.0,North,-9999.0,-,N/A,,Clear,0,2012-10-12 06:51:00
3:51 AM,48.9,37.9,66,30.10,10.0,North,-9999.0,-,N/A,,Clear,0,2012-10-12 07:51:00
4:51 AM,48.0,39.0,71,30.09,10.0,WSW,4.6,-,N/A,,Clear,240,2012-10-12 08:51:00
5:51 AM,48.0,39.0,71,30.08,10.0,WSW,5.8,-,N/A,,Clear,250,2012-10-12 09:51:00
6:51 AM,48.0,39.9,74,30.07,10.0,Variable,6.9,-,N/A,,Clear,0,2012-10-12 10:51:00
7:51 AM,48.0,39.0,71,30.08,10.0,Variable,3.5,-,N/A,,Clear,0,2012-10-12 11:51:00
8:51 AM,50.0,37.0,61,30.10,10.0,Variable,3.5,-,N/A,,Clear,0,2012-10-12 12:51:00
9:51 AM,53.1,39.9,61,30.12,10.0,North,-9999.0,-,N/A,,Clear,0,2012-10-12 13:51:00
10:51 AM,51.8,37.4,58,30.15,10.0,WNW,5.8,-,N/A,,Overcast,300,2012-10-12 14:51:00
11:51 AM,52.0,37.9,59,30.15,10.0,NW,8.1,17.3,N/A,,Overcast,310,2012-10-12 15:51:00
12:51 PM,54.0,39.0,57,30.15,10.0,Variable,4.6,17.3,N/A,,Mostly Cloudy,0,2012-10-12 16:51:00
1:51 PM,54.0,37.0,53,30.16,10.0,WNW,10.4,16.1,N/A,,Overcast,300,2012-10-12 17:51:00
2:51 PM,55.0,33.1,43,30.17,10.0,North,-9999.0,-,N/A,,Mostly Cloudy,0,2012-10-12 18:51:00
3:51 PM,52.0,36.0,54,30.19,10.0,NW,9.2,-,N/A,,Mostly Cloudy,310,2012-10-12 19:51:00
4:51 PM,50.0,34.0,54,30.22,10.0,Variable,6.9,-,N/A,,Mostly Cloudy,0,2012-10-12 20:51:00
5:51 PM,51.1,30.9,46,30.25,10.0,NW,8.1,23.0,N/A,,Clear,320,2012-10-12 21:51:00
6:51 PM,50.0,28.0,43,30.29,10.0,NW,9.2,17.3,N/A,,Clear,310,2012-10-12 22:51:00
7:51 PM,48.9,27.0,43,30.33,10.0,Variable,4.6,-,N/A,,Clear,0,2012-10-12 23:51:00
8:51 PM,46.9,25.0,42,30.35,10.0,Variable,4.6,-,N/A,,Clear,0,2012-10-13 00:51:00
9:51 PM,45.0,26.1,48,30.38,10.0,Variable,4.6,-,N/A,,Clear,0,2012-10-13 01:51:00
10:51 PM,45.0,25.0,46,30.41,10.0,North,8.1,-,N/A,,Clear,360,2012-10-13 02:51:00
11:51 PM,43.0,27.0,53,30.43,10.0,Variable,4.6,-,N/A,,Clear,0,2012-10-13 03:51:00